Benson, MN

9:58 AM CDT on May 29, 2017 (GMT -0500)
Benson Municipal

Weather History for KBBB - August, 2013

Change the Weather History Date:

Wednesday, August 21, 2013

  Actual Average Record
Temperature  
Mean Temperature 78 °F -  
Max Temperature 89 °F 80 °F 100 °F (1976)
Min Temperature 66 °F 60 °F 33 °F (2004)
Cooling Degree Days 12    
Growing Degree Days 28 (Base 50)    
Moisture  
Dew Point 66 °F    
Average Humidity 73    
Maximum Humidity 100    
Minimum Humidity 35    
Precipitation  
Precipitation 0.00 in - - ()
Sea Level Pressure  
Sea Level Pressure 29.91 in    
Wind  
Wind Speed 6 mph (ENE)    
Max Wind Speed 12 mph    
Max Gust Speed 18 mph    
Visibility 7 miles    
Events Fog    
Averages and records for this station are not official NWS values.
T = Trace of Precipitation, MM = Missing Value Source: NWS Daily Summary

Daily Weather History Graph

Daily Weather History Graph

Search for Another Location

Airport or City:

Trip Planner

Search our weather history database for the weather conditions in past years. The results will help you decide how hot, cold, wet, or windy it might be!

Date:

Astronomy

Aug. 21, 2013 Rise Set
Actual Time 6:31 AM CDT 8:19 PM CDT
Civil Twilight 5:59 AM CDT 8:50 PM CDT
Nautical Twilight 5:21 AM CDT 9:28 PM CDT
Astronomical Twilight 4:39 AM CDT 10:10 PM CDT
Moon 8:21 PM CDT (8/21) 7:17 AM CDT (8/21)
Length of Visible Light 14h 50m
Length of Day
13h 48m
Waxing Gibbous, 99% of the Moon is Illuminated
Aug 21
Waxing Gibbous
Aug 28
Last Quarter
Sep 5
New
Sep 12
First Quarter
Sep 19
Full

Hourly Weather History & Observations

Time (CDT) Temp. Heat Index Dew Point Humidity Pressure Visibility Wind Dir Wind Speed Gust Speed Precip Events Conditions
12:13 AM 73.4 °F - 71.6 °F 94% 29.82 in 5.0 mi SSW 6.9 mph - N/A   Clear
12:33 AM 73.4 °F - 71.6 °F 94% 29.82 in 5.0 mi South 10.4 mph - N/A   Clear
12:52 AM 73.4 °F - 71.6 °F 94% 29.82 in 5.0 mi SSW 8.1 mph - N/A   Clear
1:13 AM 73.4 °F - 71.6 °F 94% 29.82 in 5.0 mi SSW 8.1 mph - N/A   Clear
1:32 AM 73.4 °F - 71.6 °F 94% 29.82 in 5.0 mi SSW 5.8 mph - N/A   Clear
1:52 AM 73.4 °F - 71.6 °F 94% 29.82 in 4.0 mi SSW 5.8 mph - N/A   Clear
2:13 AM 71.6 °F - 71.6 °F 100% 29.82 in 3.0 mi SSW 3.5 mph - N/A   Clear
2:32 AM 71.6 °F - 71.6 °F 100% 29.81 in 3.0 mi SSW 6.9 mph - N/A   Clear
2:52 AM 73.4 °F - 71.6 °F 94% 29.81 in 4.0 mi SSW 5.8 mph - N/A   Clear
3:13 AM 71.6 °F - 71.6 °F 100% 29.81 in 4.0 mi SSW 4.6 mph - N/A   Clear
3:32 AM 71.6 °F - 71.6 °F 100% 29.82 in 3.0 mi South 3.5 mph - N/A   Clear
3:52 AM 71.6 °F - 71.6 °F 100% 29.81 in 3.0 mi South 4.6 mph - N/A   Clear
4:13 AM 71.6 °F - 69.8 °F 94% 29.81 in 3.0 mi SSW 4.6 mph - N/A   Clear
4:32 AM 71.6 °F - 69.8 °F 94% 29.81 in 3.0 mi South 3.5 mph - N/A   Clear
4:52 AM 71.6 °F - 69.8 °F 94% 29.80 in 2.5 mi South 3.5 mph - N/A   Clear
5:13 AM 71.6 °F - 69.8 °F 94% 29.82 in 3.0 mi Calm Calm - N/A   Clear
5:32 AM 71.6 °F - 69.8 °F 94% 29.82 in 2.5 mi Calm Calm - N/A   Clear
5:53 AM 69.8 °F - 68.0 °F 94% 29.82 in 0.8 mi Calm Calm - N/A   Mostly Cloudy
6:12 AM 69.8 °F - 69.8 °F 100% 29.82 in 3.0 mi South 3.5 mph - N/A   Scattered Clouds
6:32 AM 69.8 °F - 69.8 °F 100% 29.83 in 2.5 mi Calm Calm - N/A   Clear
6:53 AM 68.0 °F - 66.2 °F 94% 29.83 in 0.2 mi Calm Calm - N/A Fog Fog
7:12 AM 68.0 °F - 66.2 °F 94% 29.84 in 0.2 mi South 3.5 mph - N/A Fog Fog
7:32 AM 69.8 °F - 69.8 °F 100% 29.84 in 1.2 mi South 4.6 mph - N/A   Mostly Cloudy
7:53 AM 69.8 °F - 69.8 °F 100% 29.86 in 2.0 mi WSW 6.9 mph - N/A   Mostly Cloudy
8:12 AM 71.6 °F - 69.8 °F 94% 29.87 in 2.5 mi West 6.9 mph - N/A   Mostly Cloudy
8:32 AM 71.6 °F - 71.6 °F 100% 29.87 in 3.0 mi WNW 5.8 mph - N/A   Overcast
8:53 AM 73.4 °F - 71.6 °F 94% 29.88 in 4.0 mi WNW 6.9 mph - N/A   Mostly Cloudy
9:12 AM 75.2 °F - 73.4 °F 94% 29.88 in 5.0 mi NW 5.8 mph - N/A   Scattered Clouds
9:32 AM 77.0 °F - 73.4 °F 89% 29.89 in 5.0 mi North 9.2 mph - N/A   Clear
9:53 AM 78.8 °F - 73.4 °F 83% 29.89 in 7.0 mi North 6.9 mph - N/A   Scattered Clouds
10:12 AM 78.8 °F - 73.4 °F 83% 29.90 in 7.0 mi North 10.4 mph - N/A   Scattered Clouds
10:32 AM 78.8 °F - 73.4 °F 83% 29.91 in 7.0 mi North 11.5 mph - N/A   Scattered Clouds
10:53 AM 78.8 °F - 73.4 °F 83% 29.92 in 7.0 mi North 8.1 mph - N/A   Scattered Clouds
11:12 AM 80.6 °F 84.6 °F 71.6 °F 74% 29.92 in 10.0 mi ENE 4.6 mph - N/A   Scattered Clouds
11:32 AM 80.6 °F 84.6 °F 71.6 °F 74% 29.92 in 10.0 mi North 3.5 mph - N/A   Clear
11:53 AM 82.4 °F 87.2 °F 71.6 °F 70% 29.93 in 10.0 mi ENE 6.9 mph - N/A   Clear
12:12 PM 82.4 °F 87.2 °F 71.6 °F 70% 29.92 in 10.0 mi NNE 6.9 mph - N/A   Clear
12:33 PM 84.2 °F 89.6 °F 71.6 °F 66% 29.93 in 10.0 mi NNE 8.1 mph - N/A   Clear
12:52 PM 86.0 °F 91.8 °F 71.6 °F 62% 29.92 in 10.0 mi NE 9.2 mph - N/A   Clear
1:12 PM 86.0 °F 91.8 °F 71.6 °F 62% 29.93 in 10.0 mi NNE 11.5 mph - N/A   Clear
1:33 PM 86.0 °F 90.4 °F 69.8 °F 58% 29.93 in 10.0 mi NE 10.4 mph 17.3 mph N/A   Clear
1:52 PM 87.8 °F 91.4 °F 68.0 °F 52% 29.93 in 10.0 mi NNE 10.4 mph - N/A   Clear
2:12 PM 89.6 °F 92.2 °F 66.2 °F 46% 29.94 in 10.0 mi NE 11.5 mph - N/A   Clear
2:33 PM 89.6 °F 90.1 °F 62.6 °F 40% 29.95 in 10.0 mi ENE 9.2 mph 18.4 mph N/A   Clear
2:52 PM 89.6 °F 89.5 °F 60.8 °F 38% 29.95 in 10.0 mi ENE 9.2 mph - N/A   Clear
3:12 PM 89.6 °F 89.5 °F 60.8 °F 38% 29.96 in 10.0 mi ENE 9.2 mph - N/A   Clear
3:33 PM 89.6 °F 89.5 °F 60.8 °F 38% 29.96 in 10.0 mi NE 9.2 mph - N/A   Clear
3:52 PM 89.6 °F 89.5 °F 60.8 °F 38% 29.96 in 10.0 mi ENE 8.1 mph - N/A   Clear
4:13 PM 89.6 °F 89.5 °F 60.8 °F 38% 29.95 in 10.0 mi ENE 8.1 mph - N/A   Clear
4:32 PM 89.6 °F 88.9 °F 59.0 °F 36% 29.95 in 10.0 mi ENE 6.9 mph - N/A   Clear
4:52 PM 87.8 °F 86.5 °F 57.2 °F 35% 29.95 in 10.0 mi ENE 6.9 mph - N/A   Clear
5:12 PM 87.8 °F 86.5 °F 57.2 °F 35% 29.96 in 10.0 mi East 5.8 mph - N/A   Clear
5:33 PM 87.8 °F 86.5 °F 57.2 °F 35% 29.96 in 10.0 mi ENE 6.9 mph - N/A   Clear
5:52 PM 84.2 °F 83.8 °F 59.0 °F 42% 29.96 in 10.0 mi ENE 5.8 mph - N/A   Clear
6:11 PM 84.2 °F 84.4 °F 60.8 °F 45% 29.96 in 10.0 mi ENE 5.8 mph - N/A   Clear
6:32 PM 82.4 °F 83.4 °F 62.6 °F 51% 29.96 in 10.0 mi NE 3.5 mph - N/A   Clear
6:52 PM 80.6 °F 81.8 °F 62.6 °F 54% - 10.0 mi ENE 5.8 mph - N/A   Clear
7:13 PM 80.6 °F 81.8 °F 62.6 °F 54% 29.97 in 10.0 mi NE 4.6 mph - N/A   Clear
7:32 PM 78.8 °F - 62.6 °F 57% 29.98 in 10.0 mi NE 3.5 mph - N/A   Clear
7:52 PM 77.0 °F - 62.6 °F 61% 29.99 in 10.0 mi NE 4.6 mph - N/A   Clear
8:13 PM 75.2 °F - 62.6 °F 65% 29.99 in 10.0 mi NE 6.9 mph - N/A   Clear
8:32 PM 75.2 °F - 60.8 °F 61% 29.99 in 10.0 mi ENE 4.6 mph - N/A   Clear
8:53 PM 73.4 °F - 60.8 °F 65% 30.00 in 10.0 mi Calm Calm - N/A   Clear
9:12 PM 73.4 °F - 60.8 °F 65% 30.00 in 10.0 mi NE 4.6 mph - N/A   Clear
9:31 PM 73.4 °F - 59.0 °F 61% 30.00 in 10.0 mi ENE 4.6 mph - N/A   Clear
9:53 PM 73.4 °F - 57.2 °F 57% 30.01 in 10.0 mi Calm Calm - N/A   Clear
10:12 PM 69.8 °F - 57.2 °F 64% 30.02 in 10.0 mi Calm Calm - N/A   Clear
10:32 PM 66.2 °F - 60.8 °F 83% 30.03 in 10.0 mi NNE 3.5 mph - N/A   Clear
10:53 PM 66.2 °F - 59.0 °F 78% 30.02 in 10.0 mi ENE 4.6 mph - N/A   Scattered Clouds
11:12 PM 71.6 °F - 57.2 °F 60% 30.03 in 10.0 mi East 3.5 mph - N/A   Clear
11:33 PM 68.0 °F - 57.2 °F 68% 30.02 in 10.0 mi ENE 4.6 mph - N/A   Clear
11:52 PM 69.8 °F - 57.2 °F 64% 30.04 in 10.0 mi East 3.5 mph - N/A   Clear